WB4FAY-4 Weather Reports


time (UTC)temp
C
wind
direction
speed
KPH
gust
KPH
rain 1hr
cm
rain 24hr
cm
rain mn
cm
humidity
%
barometer
mb
20260509143518 17 301 3.2 3.2 0.00 0.00 0.00 95 1014.4
20260509143017 17 206 0.0 3.2 0.00 0.00 0.00 96 1014.3
20260509142518 17 234 1.6 3.2 0.00 0.00 0.00 96 1014.2
20260509142017 17 226 1.6 3.2 0.00 0.00 0.00 96 1014.1
20260509141517 17 192 0.0 4.8 0.00 0.00 0.00 96 1014.3
20260509141017 17 192 3.2 4.8 0.00 0.00 0.00 96 1014.3
20260509140517 17 236 1.6 6.4 0.00 0.00 0.00 96 1014.1
20260509140017 17 223 1.6 6.4 0.00 0.00 0.00 96 1014.3
20260509135517 17 227 1.6 4.8 0.00 0.00 0.00 96 1014.3
20260509135017 17 223 4.8 6.4 0.00 0.00 0.00 96 1014.3
20260509134517 17 227 3.2 4.8 0.00 0.00 0.00 96 1014.4
20260509134017 17 232 0.0 1.6 0.00 0.00 0.00 96 1014.3
20260509133517 17 0 0.0 0.0 0.00 0.00 0.00 96 1014.1
20260509133017 17 247 0.0 3.2 0.00 0.00 0.00 96 1014.1
20260509132517 17 200 0.0 3.2 0.00 0.00 0.00 96 1013.9
20260509132017 17 0 0.0 0.0 0.00 0.00 0.00 96 1013.7
20260509131518 17 0 0.0 0.0 0.00 0.00 0.00 96 1013.7
20260509131017 17 0 0.0 0.0 0.00 0.00 0.00 96 1013.6
20260509130517 17 0 0.0 0.0 0.00 0.00 0.00 97 1013.5
20260509130018 17 0 0.0 0.0 0.00 0.00 0.00 97 1013.5
20260509125517 17 0 0.0 0.0 0.00 0.00 0.00 97 1013.4
20260509125017 17 0 0.0 0.0 0.00 0.00 0.00 97 1013.2
20260509124517 17 0 0.0 0.0 0.00 0.00 0.00 97 1013.1
20260509124017 17 0 0.0 0.0 0.00 0.00 0.00 97 1013.2
20260509123517 17 0 0.0 0.0 0.00 0.00 0.00 97 1013.4
20260509123017 17 0 0.0 0.0 0.00 0.00 0.00 97 1013.5
20260509122517 16 0 0.0 0.0 0.00 0.00 0.00 97 1013.4
20260509122017 17 0 0.0 0.0 0.00 0.00 0.00 97 1013.3
20260509121517 16 0 0.0 0.0 0.00 0.00 0.00 97 1013.2
20260509121017 17 0 0.0 0.0 0.00 0.00 0.00 97 1013.2
20260509120517 16 0 0.0 0.0 0.00 0.00 0.00 97 1013.1
20260509120017 16 0 0.0 0.0 0.00 0.00 0.00 97 1013.1
20260509115518 16 0 0.0 0.0 0.00 0.00 0.00 97 1013.2
20260509115017 16 0 0.0 0.0 0.00 0.00 0.00 97 1013.2
20260509114517 16 200 0.0 8.0 0.00 0.00 0.00 97 1013.2
20260509114017 16 205 4.8 4.8 0.00 0.00 0.00 97 1013.3
20260509113518 16 210 1.6 4.8 0.00 0.00 0.00 97 1013.4
20260509113018 16 202 3.2 4.8 0.00 0.00 0.00 97 1013.4
20260509112517 16 244 3.2 3.2 0.00 0.00 0.00 97 1013.3
20260509112018 16 237 1.6 3.2 0.00 0.00 0.00 97 1013.2
20260509111517 16 205 1.6 4.8 0.00 0.00 0.00 97 1013.2
20260509111017 16 191 0.0 6.4 0.00 0.00 0.00 97 1013.1
20260509110517 16 233 3.2 4.8 0.00 0.00 0.00 97 1013.1
20260509110017 16 236 1.6 4.8 0.00 0.00 0.00 97 1013.1
20260509105517 16 234 0.0 4.8 0.00 0.00 0.00 96 1013.3
20260509105017 16 196 3.2 4.8 0.00 0.00 0.00 96 1013.2
20260509104517 16 260 3.2 4.8 0.00 0.00 0.00 96 1013.0
20260509104017 16 230 1.6 4.8 0.00 0.00 0.00 96 1012.9
20260509103517 16 215 1.6 4.8 0.00 0.00 0.00 96 1012.8
20260509103017 16 0 0.0 0.0 0.00 0.00 0.00 96 1012.6
20260509102518 16 196 0.0 1.6 0.00 0.00 0.00 96 1012.5
20260509102017 16 222 0.0 1.6 0.00 0.00 0.00 96 1012.8
20260509101518 16 278 1.6 3.2 0.00 0.00 0.00 96 1012.8
20260509101017 16 0 1.6 0.0 0.00 0.00 0.00 96 1012.7
20260509100517 16 0 0.0 0.0 0.00 0.00 0.00 96 1012.6
20260509100017 16 0 0.0 0.0 0.00 0.00 0.00 96 1012.5
20260509095517 16 0 0.0 0.0 0.00 0.00 0.00 96 1012.2
20260509095017 16 0 0.0 0.0 0.00 0.00 0.00 96 1012.2
20260509094518 16 0 0.0 0.0 0.00 0.00 0.00 96 1012.0
20260509094018 16 0 0.0 0.0 0.00 0.00 0.00 96 1011.7
20260509093517 16 0 0.0 0.0 0.00 0.00 0.00 96 1011.8
20260509093018 16 0 0.0 0.0 0.00 0.00 0.00 96 1011.7
20260509092518 16 0 0.0 0.0 0.00 0.00 0.00 96 1011.6
20260509092017 16 0 0.0 0.0 0.00 0.00 0.00 96 1011.7
20260509091517 16 0 0.0 0.0 0.00 0.00 0.00 95 1011.8
20260509091017 16 232 0.0 1.6 0.00 0.00 0.00 95 1011.6
20260509090517 16 209 0.0 3.2 0.00 0.00 0.00 95 1011.7
20260509090017 16 243 1.6 3.2 0.00 0.00 0.00 95 1011.8
20260509085518 16 0 0.0 0.0 0.00 0.00 0.00 95 1011.7
20260509085017 16 0 0.0 0.0 0.00 0.00 0.00 95 1011.5
20260509084517 16 195 0.0 4.8 0.00 0.00 0.00 95 1012.1
20260509084017 16 227 1.6 1.6 0.00 0.00 0.00 95 1012.3
20260509083517 16 209 1.6 11.3 0.00 0.00 0.00 95 1012.5
20260509083017 16 198 9.7 8.0 0.00 0.00 0.00 95 1013.0
20260509082517 16 209 4.8 8.0 0.00 0.00 0.00 95 1013.1
20260509082017 16 234 3.2 4.8 0.00 0.00 0.00 95 1013.1
20260509081517 16 232 0.0 3.2 0.00 0.00 0.00 95 1013.2
20260509081017 16 237 3.2 3.2 0.00 0.00 0.00 95 1013.2
20260509080517 16 220 3.2 6.4 0.00 0.00 0.00 95 1013.4
20260509080017 16 0 0.0 0.0 0.00 0.00 0.00 95 1013.5
20260509075517 16 0 0.0 0.0 0.00 0.00 0.00 95 1013.4
20260509075017 16 0 0.0 0.0 0.00 0.00 0.00 95 1013.2
20260509074517 16 0 0.0 0.0 0.00 0.00 0.00 95 1013.3
20260509074017 15 0 0.0 0.0 0.00 0.00 0.00 95 1013.3
20260509073517 15 0 0.0 0.0 0.00 0.00 0.00 95 1013.3
20260509073017 15 0 0.0 0.0 0.00 0.00 0.00 95 1013.2
20260509072517 15 0 0.0 0.0 0.00 0.00 0.00 95 1013.1
20260509072018 15 0 0.0 0.0 0.00 0.00 0.00 95 1013.1
20260509071517 15 0 0.0 0.0 0.00 0.00 0.00 95 1013.1
20260509071017 15 0 0.0 0.0 0.00 0.00 0.00 95 1012.8
20260509070517 15 0 0.0 0.0 0.00 0.00 0.00 95 1012.7
20260509070017 15 0 0.0 0.0 0.00 0.00 0.00 95 1012.8
20260509065517 15 0 0.0 0.0 0.00 0.00 0.00 95 1012.7
20260509065017 15 0 0.0 0.0 0.00 0.00 0.00 95 1012.8
20260509064517 15 0 0.0 0.0 0.00 0.00 0.00 95 1013.0
20260509064017 15 0 0.0 0.0 0.00 0.00 0.00 95 1013.1
20260509063518 15 0 0.0 0.0 0.00 0.00 0.00 95 1013.1
20260509063018 15 0 0.0 0.0 0.00 0.00 0.00 95 1013.0
20260509062517 15 0 0.0 0.0 0.00 0.00 0.00 95 1012.8
20260509061517 15 0 0.0 0.0 0.00 0.00 0.00 95 1012.8
20260509061017 15 0 0.0 0.0 0.00 0.00 0.00 95 1012.8
20260509060517 14 0 0.0 0.0 0.00 0.00 0.00 95 1012.9
20260509060018 14 0 0.0 0.0 0.00 0.00 0.00 95 1013.1
20260509055517 15 0 0.0 0.0 0.00 0.00 0.00 95 1013.3
20260509055017 14 0 0.0 0.0 0.00 0.00 0.00 94 1013.3
20260509054518 15 0 0.0 0.0 0.00 0.00 0.00 94 1013.3
20260509054017 15 0 0.0 0.0 0.00 0.00 0.00 94 1013.4
20260509053518 15 0 0.0 0.0 0.00 0.00 0.00 94 1013.4
20260509053017 15 0 0.0 0.0 0.00 0.00 0.00 94 1013.3
20260509052517 15 0 0.0 0.0 0.00 0.00 0.00 94 1013.4
20260509052018 15 0 0.0 0.0 0.00 0.00 0.00 94 1013.5
20260509051517 15 0 0.0 0.0 0.00 0.00 0.00 94 1013.6
20260509051017 15 0 0.0 0.0 0.00 0.00 0.00 93 1013.6
20260509050517 15 0 0.0 0.0 0.00 0.00 0.00 93 1013.6
20260509050017 15 0 0.0 0.0 0.00 0.00 0.00 93 1013.7
20260509045517 15 0 0.0 0.0 0.00 0.05 0.00 93 1013.7
20260509045017 15 0 0.0 0.0 0.00 0.05 0.00 93 1013.7
20260509044517 15 0 0.0 0.0 0.00 0.05 0.00 92 1013.7
20260509044017 15 0 0.0 0.0 0.00 0.05 0.00 92 1013.8
20260509043517 15 0 0.0 0.0 0.00 0.05 0.00 92 1013.6
20260509043017 15 0 0.0 0.0 0.00 0.05 0.00 92 1013.8
20260509042517 15 0 0.0 0.0 0.00 0.05 0.00 91 1013.8
20260509042017 15 0 0.0 0.0 0.00 0.05 0.00 91 1013.7
20260509041517 15 0 0.0 0.0 0.00 0.05 0.00 91 1013.7
20260509041017 15 0 0.0 0.0 0.00 0.05 0.00 91 1013.6
20260509040517 15 0 0.0 0.0 0.00 0.05 0.00 91 1013.6
20260509040017 15 0 0.0 0.0 0.00 0.05 0.00 90 1013.6
20260509035517 15 0 0.0 0.0 0.00 0.05 0.00 90 1013.6
20260509035022 15 0 0.0 0.0 0.00 0.05 0.00 90 1013.6
20260509034517 15 0 0.0 0.0 0.00 0.05 0.00 90 1013.7
20260509034017 15 0 0.0 0.0 0.00 0.05 0.00 90 1013.7
20260509033517 15 0 0.0 0.0 0.00 0.05 0.00 90 1013.8
20260509033017 15 0 0.0 0.0 0.00 0.05 0.00 90 1014.1
20260509032517 15 0 0.0 0.0 0.00 0.05 0.00 90 1014.0
20260509032018 15 0 0.0 0.0 0.00 0.05 0.00 90 1013.8
20260509031518 15 0 0.0 0.0 0.00 0.05 0.00 90 1013.8
20260509031017 15 0 0.0 0.0 0.00 0.05 0.00 89 1013.7
20260509030518 15 0 0.0 0.0 0.00 0.05 0.00 89 1013.2
20260509030017 15 0 0.0 0.0 0.00 0.05 0.00 89 1013.3
20260509025517 15 0 0.0 0.0 0.00 0.05 0.00 89 1013.5
20260509025017 15 0 0.0 0.0 0.00 0.05 0.00 89 1013.6
20260509024517 15 0 0.0 0.0 0.00 0.05 0.00 89 1013.6
20260509024017 15 0 0.0 0.0 0.00 0.05 0.00 89 1013.6
20260509023518 15 0 0.0 0.0 0.00 0.05 0.00 89 1013.7
20260509023017 15 0 0.0 0.0 0.00 0.05 0.00 89 1013.9
20260509022517 15 0 0.0 0.0 0.00 0.05 0.00 89 1014.1
20260509022017 15 0 0.0 0.0 0.00 0.05 0.00 89 1014.0
20260509021517 16 0 0.0 0.0 0.00 0.05 0.00 89 1013.9
20260509021017 16 0 0.0 0.0 0.00 0.05 0.00 89 1014.0
20260509020519 16 0 0.0 0.0 0.00 0.05 0.00 88 1014.1
20260509020017 16 0 0.0 0.0 0.00 0.05 0.00 88 1014.1
20260509015517 16 0 0.0 0.0 0.00 0.05 0.00 88 1014.0
20260509015017 16 0 0.0 0.0 0.00 0.05 0.00 88 1013.9
20260509014517 16 0 0.0 0.0 0.00 0.05 0.00 87 1013.7
20260509014018 16 0 0.0 0.0 0.00 0.05 0.00 87 1013.7
20260509013517 16 0 0.0 0.0 0.00 0.05 0.00 87 1013.5
20260509013018 16 0 0.0 0.0 0.00 0.05 0.00 87 1013.5
20260509012517 16 0 0.0 0.0 0.00 0.05 0.00 87 1013.4
20260509012017 16 0 0.0 0.0 0.00 0.05 0.00 86 1013.4
20260509011518 16 0 0.0 0.0 0.00 0.05 0.00 86 1013.6
20260509011017 16 0 0.0 0.0 0.00 0.05 0.00 86 1013.8
20260509010517 16 0 0.0 0.0 0.00 0.05 0.00 86 1013.7
20260509010017 16 0 0.0 0.0 0.00 0.05 0.00 85 1013.8
20260509005517 16 0 0.0 0.0 0.00 0.05 0.00 85 1013.7
20260509005017 16 0 0.0 0.0 0.00 0.05 0.00 85 1013.7
20260509004517 16 0 0.0 0.0 0.00 0.05 0.00 84 1013.7
20260509004017 16 0 0.0 0.0 0.00 0.05 0.00 84 1013.7
20260509003517 16 0 0.0 0.0 0.00 0.05 0.00 84 1013.9
20260509003017 16 0 0.0 0.0 0.00 0.05 0.00 84 1013.8
20260509002518 17 0 0.0 0.0 0.00 0.05 0.00 83 1013.9
20260509002017 17 0 0.0 0.0 0.00 0.05 0.00 83 1013.9
20260509001517 17 0 0.0 0.0 0.00 0.05 0.00 83 1013.9
20260509001018 17 0 0.0 0.0 0.00 0.05 0.00 83 1013.8
20260509000517 17 0 0.0 0.0 0.00 0.05 0.00 82 1013.7
20260509000017 17 0 0.0 0.0 0.00 0.05 0.00 82 1013.9
20260508235517 17 0 0.0 0.0 0.00 0.05 0.00 82 1014.1
20260508235017 17 0 0.0 0.0 0.00 0.05 0.00 82 1014.1
20260508234517 17 0 0.0 0.0 0.00 0.05 0.00 81 1014.3
20260508234018 17 0 0.0 0.0 0.00 0.05 0.00 81 1014.6
20260508233517 17 0 0.0 0.0 0.00 0.05 0.00 81 1014.6
20260508233017 17 0 0.0 0.0 0.00 0.05 0.00 81 1014.6
20260508232517 17 0 0.0 0.0 0.00 0.05 0.00 81 1014.7
20260508232018 17 0 0.0 0.0 0.00 0.05 0.00 81 1014.8
20260508231517 17 0 0.0 0.0 0.00 0.05 0.00 81 1014.9
20260508231017 17 0 0.0 0.0 0.00 0.05 0.00 81 1015.1
20260508230517 17 0 0.0 0.0 0.00 0.05 0.00 81 1015.1
20260508230017 17 241 0.0 0.0 0.00 0.05 0.00 81 1015.0
20260508225517 17 285 0.0 9.7 0.00 0.05 0.00 80 1015.0
20260508225017 17 0 1.6 0.0 0.00 0.05 0.00 79 1014.5
20260508224517 17 0 0.0 0.0 0.00 0.05 0.00 80 1014.8
20260508224018 17 357 0.0 1.6 0.00 0.05 0.00 80 1015.0
20260508223517 18 0 0.0 0.0 0.00 0.05 0.00 80 1014.8
20260508223017 18 1 0.0 1.6 0.00 0.05 0.00 80 1015.0
20260508222517 18 10 0.0 1.6 0.00 0.05 0.00 79 1015.0
20260508222017 18 0 0.0 0.0 0.00 0.05 0.00 78 1014.9
20260508221517 18 343 0.0 1.6 0.00 0.05 0.00 78 1015.0
20260508221017 18 349 0.0 1.6 0.00 0.05 0.00 77 1014.9
20260508220518 18 346 0.0 1.6 0.00 0.05 0.00 78 1014.9
20260508220017 18 44 0.0 1.6 0.00 0.05 0.00 76 1014.7
20260508215517 18 0 0.0 0.0 0.00 0.05 0.00 77 1014.7
20260508215017 18 316 0.0 0.0 0.00 0.05 0.00 77 1014.9
20260508214517 18 333 0.0 1.6 0.00 0.05 0.00 77 1014.9
20260508214017 18 335 0.0 3.2 0.00 0.05 0.00 77 1014.9
20260508213517 18 0 0.0 0.0 0.00 0.05 0.00 77 1015.0
20260508213017 18 54 0.0 3.2 0.00 0.05 0.00 76 1015.0
20260508212518 18 0 0.0 0.0 0.00 0.05 0.00 75 1015.1
20260508212017 18 301 0.0 3.2 0.00 0.05 0.00 73 1015.1
20260508211517 18 294 0.0 1.6 0.00 0.05 0.00 72 1015.1
20260508211017 18 0 0.0 0.0 0.00 0.05 0.00 75 1015.3
20260508210517 18 0 0.0 0.0 0.00 0.05 0.00 74 1015.2
20260508210017 18 275 0.0 3.2 0.00 0.05 0.00 72 1015.3
20260508205518 18 278 1.6 4.8 0.00 0.05 0.00 72 1015.2
20260508205017 18 234 0.0 3.2 0.00 0.05 0.00 72 1015.2
20260508204518 18 258 0.0 3.2 0.00 0.05 0.00 74 1015.4
20260508204017 18 275 0.0 1.6 0.00 0.05 0.00 73 1015.2
20260508203517 18 37 0.0 4.8 0.00 0.05 0.00 72 1015.0
20260508203018 18 76 3.2 4.8 0.00 0.05 0.00 71 1015.0
20260508202518 18 0 0.0 0.0 0.00 0.05 0.00 73 1015.2
20260508202022 18 0 0.0 0.0 0.00 0.05 0.00 74 1015.5
20260508201517 18 0 0.0 0.0 0.00 0.05 0.00 73 1015.4
20260508201017 18 232 0.0 1.6 0.00 0.05 0.00 72 1015.6
20260508200518 18 257 0.0 3.2 0.00 0.05 0.00 71 1015.5
20260508200018 18 0 0.0 0.0 0.00 0.05 0.00 71 1015.5
20260508195517 18 219 0.0 0.0 0.00 0.05 0.00 69 1015.4
20260508195017 18 260 0.0 3.2 0.00 0.05 0.00 70 1015.6
20260508194517 19 257 0.0 3.2 0.00 0.05 0.00 71 1015.6
20260508194017 19 256 1.6 3.2 0.00 0.05 0.00 70 1015.7
20260508193522 19 257 1.6 4.8 0.00 0.05 0.00 68 1015.7
20260508193017 19 313 3.2 4.8 0.00 0.05 0.00 67 1015.8
20260508192517 19 78 0.0 8.0 0.00 0.05 0.00 66 1015.7
20260508192022 19 0 3.2 0.0 0.00 0.05 0.00 66 1015.8
20260508191517 19 0 0.0 0.0 0.00 0.05 0.00 66 1015.6
20260508191017 19 0 0.0 0.0 0.00 0.05 0.00 64 1015.6
20260508190522 19 0 0.0 0.0 0.00 0.05 0.00 64 1015.6
20260508190017 19 90 0.0 9.7 0.00 0.05 0.00 63 1015.3
20260508185517 19 90 6.4 9.7 0.00 0.05 0.00 62 1015.3
20260508185017 19 90 0.0 8.0 0.00 0.05 0.00 62 1015.7
20260508184517 19 95 3.2 6.4 0.00 0.05 0.00 62 1015.7
20260508184017 19 88 1.6 8.0 0.00 0.05 0.00 62 1016.0
20260508183518 19 89 1.6 9.7 0.00 0.05 0.00 61 1015.9
20260508183018 19 31 4.8 6.4 0.00 0.05 0.00 60 1016.1
20260508182517 19 73 0.0 3.2 0.00 0.05 0.00 60 1016.3
20260508182022 19 4 0.0 8.0 0.00 0.05 0.00 59 1016.4
20260508181517 19 354 3.2 4.8 0.00 0.05 0.00 61 1016.3
20260508181018 19 0 0.0 0.0 0.00 0.05 0.00 59 1016.5
20260508180517 20 268 0.0 6.4 0.00 0.05 0.00 59 1016.6
20260508180017 20 282 1.6 6.4 0.00 0.05 0.00 58 1016.6
20260508175517 20 253 0.0 8.0 0.00 0.05 0.00 59 1016.8
20260508175017 20 263 1.6 9.7 0.00 0.05 0.00 57 1016.9
20260508174517 20 58 0.0 1.6 0.00 0.05 0.00 56 1017.1
20260508174017 20 0 0.0 0.0 0.00 0.05 0.00 57 1017.0
20260508173522 20 93 0.0 6.4 0.00 0.05 0.00 57 1016.9
20260508173017 20 71 0.0 4.8 0.00 0.05 0.00 56 1016.9
20260508172517 20 54 1.6 4.8 0.00 0.05 0.00 56 1016.9
20260508172018 20 20 1.6 1.6 0.00 0.05 0.00 56 1017.0
20260508171518 20 90 0.0 11.3 0.00 0.05 0.00 55 1017.2
20260508171017 20 90 0.0 9.7 0.00 0.05 0.00 55 1017.4
20260508170517 20 253 1.6 8.0 0.00 0.05 0.00 56 1017.3
20260508170017 20 92 6.4 8.0 0.00 0.05 0.00 58 1017.5
20260508165517 20 65 1.6 4.8 0.00 0.05 0.00 60 1017.6
20260508165018 20 147 0.0 4.8 0.00 0.05 0.00 57 1017.6
20260508164517 20 99 0.0 8.0 0.00 0.05 0.00 56 1017.8
20260508164017 20 66 3.2 12.9 0.00 0.05 0.00 56 1017.8
20260508163517 20 99 0.0 9.7 0.00 0.05 0.00 58 1017.8
20260508163017 20 120 1.6 9.7 0.00 0.05 0.00 59 1017.8
20260508162517 20 73 3.2 14.5 0.00 0.05 0.00 58 1018.0
20260508162017 20 90 4.8 11.3 0.00 0.05 0.00 59 1018.1
20260508161517 20 55 8.0 9.7 0.00 0.05 0.00 60 1018.1
20260508161017 19 112 4.8 8.0 0.00 0.05 0.00 60 1018.2
20260508160518 19 66 1.6 12.9 0.00 0.05 0.00 61 1018.2
20260508160018 19 127 4.8 11.3 0.00 0.05 0.00 61 1018.1
20260508155517 18 78 6.4 11.3 0.00 0.05 0.00 61 1018.3
20260508155017 18 66 9.7 14.5 0.00 0.05 0.00 61 1018.5
20260508154517 18 93 3.2 11.3 0.00 0.05 0.00 62 1018.5
20260508154018 18 104 3.2 9.7 0.00 0.05 0.00 62 1018.4
20260508153517 18 68 4.8 12.9 0.00 0.05 0.00 62 1018.4
20260508153017 18 88 1.6 8.0 0.00 0.05 0.00 62 1018.4
20260508152517 18 78 3.2 11.3 0.00 0.05 0.00 62 1018.3
20260508152017 18 99 4.8 14.5 0.00 0.05 0.00 63 1018.4
20260508151517 18 96 4.8 11.3 0.00 0.05 0.00 64 1018.4
20260508151017 18 80 8.0 14.5 0.00 0.05 0.00 66 1018.4
20260508150517 17 99 6.4 9.7 0.00 0.05 0.00 67 1018.6
20260508150017 17 140 6.4 11.3 0.00 0.05 0.00 68 1018.6
20260508145517 17 85 3.2 8.0 0.00 0.05 0.00 69 1018.5
20260508145017 17 97 1.6 8.0 0.00 0.05 0.00 69 1018.6
20260508144517 17 85 3.2 6.4 0.00 0.05 0.00 69 1018.7
20260508144017 17 106 6.4 9.7 0.00 0.05 0.00 69 1018.7